Location: Dodge City Community College Clyde Tombaugh Astronomy Center
(37.7756°N, 100.0412°W)
Time: 22:00:00
(UTC+00:00)

N. Korean satellite - Pass Details

Date: 07 December 2022
Orbit: 407 x 442 km, 97.3° (Epoch: 04 February)

Event Time Altitude Azimuth Distance (km) Brightness Sun altitude
Rises 10:54:51 0° 36° (NE) 2,490 10.5 -32.3°
Reaches altitude 10° 10:58:08 10° 70° (ENE) 1,595 9.9 -31.7°
Maximum altitude 10:59:23 12° 92° (E) 1,490 9.9 -31.4°
Drops below altitude 10° 11:00:38 10° 114° (ESE) 1,579 10.0 -31.2°
Sets 11:03:49 0° 148° (SSE) 2,426 10.6 -30.6°
